Time,TemperatureF,DewpointF,PressureIn,WindDirection,WindDirectionDegrees,WindSpeedMPH,WindSpeedGustMPH,Humidity,HourlyPrecipIn,Conditions,Clouds,dailyrainin,SoftwareType,DateUTC
2013-09-20 00:01:00,69.5,69.0,29.86,SSE,150,2.0,6.0,97,0.00,,,0.00,weatherlink.com 1.10,2013-09-20 04:01:00,
2013-09-20 00:16:00,69.7,69.0,29.87,South,171,1.0,6.0,97,0.00,,,0.00,weatherlink.com 1.10,2013-09-20 04:16:00,
2013-09-20 00:31:00,69.8,69.0,29.87,SSE,157,1.0,6.0,97,0.00,,,0.00,weatherlink.com 1.10,2013-09-20 04:31:00,
2013-09-20 00:46:00,70.2,69.0,29.87,South,170,1.0,6.0,97,0.00,,,0.00,weatherlink.com 1.10,2013-09-20 04:46:00,
2013-09-20 01:01:00,70.5,70.0,29.87,South,184,1.0,5.0,97,0.00,,,0.00,weatherlink.com 1.10,2013-09-20 05:01:00,
2013-09-20 01:16:00,70.8,70.0,29.88,South,171,6.0,6.0,97,0.00,,,0.00,weatherlink.com 1.10,2013-09-20 05:16:00,
2013-09-20 01:31:00,71.1,70.0,29.88,South,184,0.0,8.0,97,0.00,,,0.00,weatherlink.com 1.10,2013-09-20 05:31:00,
2013-09-20 01:46:00,71.3,70.0,29.87,South,188,0.0,6.0,97,0.00,,,0.00,weatherlink.com 1.10,2013-09-20 05:46:00,
2013-09-20 02:01:00,71.5,70.0,29.87,SSW,192,1.0,5.0,96,0.00,,,0.00,weatherlink.com 1.10,2013-09-20 06:01:00,
2013-09-20 02:16:00,71.7,71.0,29.86,South,180,1.0,7.0,96,0.00,,,0.00,weatherlink.com 1.10,2013-09-20 06:16:00,
2013-09-20 02:31:00,71.9,71.0,29.86,SSE,149,3.0,11.0,96,0.00,,,0.00,weatherlink.com 1.10,2013-09-20 06:31:00,
2013-09-20 02:46:00,71.9,71.0,29.85,South,188,0.0,6.0,96,0.00,,,0.00,weatherlink.com 1.10,2013-09-20 06:46:00,
2013-09-20 03:01:00,71.9,71.0,29.84,SW,218,1.0,7.0,95,0.00,,,0.00,weatherlink.com 1.10,2013-09-20 07:01:00,
2013-09-20 03:16:00,71.9,71.0,29.83,South,182,3.0,7.0,95,0.00,,,0.00,weatherlink.com 1.10,2013-09-20 07:16:00,
2013-09-20 03:31:00,71.6,70.0,29.83,ESE,103,0.0,8.0,96,0.00,,,0.00,weatherlink.com 1.10,2013-09-20 07:31:00,
2013-09-20 03:46:00,71.5,70.0,29.83,SE,144,5.0,8.0,96,0.00,,,0.00,weatherlink.com 1.10,2013-09-20 07:46:00,
2013-09-20 04:01:00,71.5,70.0,29.83,SSE,149,2.0,6.0,96,0.00,,,0.00,weatherlink.com 1.10,2013-09-20 08:01:00,
2013-09-20 04:16:00,71.6,70.0,29.83,South,186,1.0,6.0,96,0.00,,,0.00,weatherlink.com 1.10,2013-09-20 08:16:00,
2013-09-20 04:31:00,71.8,71.0,29.82,South,180,2.0,8.0,96,0.00,,,0.00,weatherlink.com 1.10,2013-09-20 08:31:00,
2013-09-20 04:46:00,72.0,71.0,29.82,North,355,4.0,10.0,95,0.00,,,0.00,weatherlink.com 1.10,2013-09-20 08:46:00,
2013-09-20 05:01:00,72.1,71.0,29.82,South,172,0.0,8.0,95,0.00,,,0.00,weatherlink.com 1.10,2013-09-20 09:01:00,
2013-09-20 05:16:00,72.2,71.0,29.82,SW,228,1.0,6.0,95,0.00,,,0.00,weatherlink.com 1.10,2013-09-20 09:16:00,
2013-09-20 05:31:00,72.2,71.0,29.81,SSW,206,2.0,7.0,95,0.00,,,0.00,weatherlink.com 1.10,2013-09-20 09:31:00,
2013-09-20 05:46:00,72.0,71.0,29.81,SSE,147,0.0,11.0,95,0.00,,,0.00,weatherlink.com 1.10,2013-09-20 09:46:00,
2013-09-20 06:01:00,71.8,70.0,29.80,WSW,245,2.0,7.0,95,0.00,,,0.00,weatherlink.com 1.10,2013-09-20 10:01:00,
2013-09-20 06:16:00,71.5,70.0,29.80,SW,231,1.0,7.0,95,0.00,,,0.00,weatherlink.com 1.10,2013-09-20 10:16:00,
2013-09-20 06:31:00,71.3,70.0,29.80,SSW,203,3.0,7.0,95,0.00,,,0.00,weatherlink.com 1.10,2013-09-20 10:31:00,
2013-09-20 06:46:00,71.2,70.0,29.80,ESE,111,5.0,8.0,96,0.00,,,0.00,weatherlink.com 1.10,2013-09-20 10:46:00,
2013-09-20 07:01:00,71.2,70.0,29.80,ESE,116,1.0,8.0,96,0.00,,,0.00,weatherlink.com 1.10,2013-09-20 11:01:00,
2013-09-20 07:16:00,71.1,70.0,29.79,SSW,209,7.0,7.0,96,0.00,,,0.00,weatherlink.com 1.10,2013-09-20 11:16:00,
2013-09-20 07:31:00,71.0,70.0,29.80,SE,142,2.0,11.0,95,0.00,,,0.00,weatherlink.com 1.10,2013-09-20 11:31:00,
2013-09-20 07:46:00,70.9,70.0,29.80,South,179,0.0,6.0,95,0.00,,,0.00,weatherlink.com 1.10,2013-09-20 11:46:00,
2013-09-20 08:01:00,71.1,70.0,29.81,SW,219,4.0,9.0,96,0.00,,,0.00,weatherlink.com 1.10,2013-09-20 12:01:00,
2013-09-20 08:16:00,71.2,70.0,29.81,South,180,0.0,10.0,95,0.00,,,0.00,weatherlink.com 1.10,2013-09-20 12:16:00,
2013-09-20 08:31:00,71.3,70.0,29.81,WSW,238,0.0,8.0,95,0.00,,,0.00,weatherlink.com 1.10,2013-09-20 12:31:00,
2013-09-20 08:46:00,71.5,70.0,29.81,WSW,255,0.0,4.0,95,0.00,,,0.00,weatherlink.com 1.10,2013-09-20 12:46:00,
2013-09-20 09:01:00,71.8,70.0,29.82,SSW,200,1.0,7.0,95,0.00,,,0.00,weatherlink.com 1.10,2013-09-20 13:01:00,
2013-09-20 09:16:00,72.3,71.0,29.82,SSE,163,2.0,9.0,94,0.00,,,0.00,weatherlink.com 1.10,2013-09-20 13:16:00,
2013-09-20 09:31:00,73.0,71.0,29.82,West,262,0.0,8.0,93,0.00,,,0.00,weatherlink.com 1.10,2013-09-20 13:31:00,
2013-09-20 09:46:00,73.3,71.0,29.82,SSE,148,1.0,8.0,92,0.00,,,0.00,weatherlink.com 1.10,2013-09-20 13:46:00,
2013-09-20 10:01:00,73.7,71.0,29.82,WSW,246,1.0,7.0,91,0.00,,,0.00,weatherlink.com 1.10,2013-09-20 14:01:00,
2013-09-20 10:16:00,74.1,71.0,29.82,SSE,155,1.0,6.0,90,0.00,,,0.00,weatherlink.com 1.10,2013-09-20 14:16:00,
2013-09-20 10:31:00,75.1,72.0,29.82,WSW,238,0.0,4.0,90,0.00,,,0.00,weatherlink.com 1.10,2013-09-20 14:31:00,
2013-09-20 10:46:00,75.3,71.0,29.82,South,182,3.0,8.0,87,0.00,,,0.00,weatherlink.com 1.10,2013-09-20 14:46:00,
2013-09-20 11:01:00,75.5,71.0,29.81,SW,225,3.0,5.0,87,0.00,,,0.00,weatherlink.com 1.10,2013-09-20 15:01:00,
2013-09-20 11:16:00,76.3,71.0,29.81,West,279,1.0,6.0,84,0.00,,,0.00,weatherlink.com 1.10,2013-09-20 15:16:00,
2013-09-20 11:33:00,76.1,71.0,29.80,WNW,303,0.0,5.0,85,0.00,,,0.00,weatherlink.com 1.10,2013-09-20 15:33:00,
2013-09-20 11:47:00,75.8,70.0,29.81,NW,309,4.0,6.0,83,0.00,,,0.00,weatherlink.com 1.10,2013-09-20 15:47:00,
2013-09-20 12:02:00,75.5,70.0,29.81,NW,309,2.0,9.0,83,0.00,,,0.00,weatherlink.com 1.10,2013-09-20 16:02:00,
2013-09-20 12:17:00,75.7,70.0,29.81,West,269,5.0,6.0,82,0.00,,,0.00,weatherlink.com 1.10,2013-09-20 16:17:00,
2013-09-20 12:32:00,75.4,70.0,29.81,West,262,0.0,6.0,83,0.00,,,0.00,weatherlink.com 1.10,2013-09-20 16:32:00,
2013-09-20 12:47:00,75.3,69.0,29.80,SSE,148,2.0,6.0,80,0.00,,,0.00,weatherlink.com 1.10,2013-09-20 16:47:00,
2013-09-20 13:02:00,75.1,69.0,29.80,WNW,288,0.0,4.0,80,0.00,,,0.00,weatherlink.com 1.10,2013-09-20 17:02:00,
2013-09-20 13:17:00,74.6,68.0,29.80,SSE,153,2.0,11.0,80,0.00,,,0.00,weatherlink.com 1.10,2013-09-20 17:17:00,
2013-09-20 13:32:00,73.8,68.0,29.80,SW,225,0.0,5.0,83,0.00,,,0.00,weatherlink.com 1.10,2013-09-20 17:32:00,
2013-09-20 14:02:00,73.4,68.0,29.79,West,263,3.0,3.0,84,0.00,,,0.00,weatherlink.com 1.10,2013-09-20 18:02:00,
2013-09-20 14:17:00,73.4,68.0,29.78,SW,220,1.0,4.0,83,0.00,,,0.00,weatherlink.com 1.10,2013-09-20 18:17:00,
2013-09-20 14:32:00,73.6,68.0,29.78,SSW,207,0.0,6.0,83,0.00,,,0.00,weatherlink.com 1.10,2013-09-20 18:32:00,
2013-09-20 14:47:00,74.0,68.0,29.77,WSW,247,0.0,3.0,82,0.00,,,0.00,weatherlink.com 1.10,2013-09-20 18:47:00,
2013-09-20 15:02:00,74.1,68.0,29.77,SSW,198,1.0,5.0,82,0.00,,,0.00,weatherlink.com 1.10,2013-09-20 19:02:00,
2013-09-20 15:32:00,74.2,69.0,29.76,NW,304,0.0,4.0,84,0.00,,,0.00,weatherlink.com 1.10,2013-09-20 19:32:00,
2013-09-20 15:47:00,74.3,69.0,29.76,WSW,257,1.0,6.0,82,0.00,,,0.00,weatherlink.com 1.10,2013-09-20 19:47:00,
2013-09-20 16:02:00,74.0,68.0,29.75,SSW,212,0.0,8.0,81,0.00,,,0.00,weatherlink.com 1.10,2013-09-20 20:02:00,
2013-09-20 16:17:00,74.5,68.0,29.75,West,265,1.0,5.0,81,0.00,,,0.00,weatherlink.com 1.10,2013-09-20 20:17:00,
2013-09-20 16:32:00,74.6,68.0,29.74,WSW,252,0.0,4.0,79,0.00,,,0.00,weatherlink.com 1.10,2013-09-20 20:32:00,
2013-09-20 16:47:00,74.1,67.0,29.74,WSW,253,0.0,5.0,79,0.00,,,0.00,weatherlink.com 1.10,2013-09-20 20:47:00,
2013-09-20 17:02:00,73.8,68.0,29.74,West,261,0.0,4.0,82,0.00,,,0.00,weatherlink.com 1.10,2013-09-20 21:02:00,
2013-09-20 17:17:00,72.8,67.0,29.74,SW,227,6.0,7.0,82,0.00,,,0.00,weatherlink.com 1.10,2013-09-20 21:17:00,
2013-09-20 17:32:00,71.7,67.0,29.74,WSW,245,0.0,4.0,86,0.01,,,0.01,weatherlink.com 1.10,2013-09-20 21:32:00,
2013-09-20 17:47:00,71.2,68.0,29.74,WSW,245,0.0,3.0,88,0.01,,,0.01,weatherlink.com 1.10,2013-09-20 21:47:00,
2013-09-20 18:02:00,71.0,68.0,29.74,WSW,245,0.0,1.0,90,0.01,,,0.01,weatherlink.com 1.10,2013-09-20 22:02:00,
2013-09-20 18:17:00,70.9,68.0,29.74,West,267,0.0,1.0,90,0.01,,,0.01,weatherlink.com 1.10,2013-09-20 22:17:00,
2013-09-20 18:32:00,70.5,68.0,29.74,SW,220,0.0,4.0,90,0.00,,,0.01,weatherlink.com 1.10,2013-09-20 22:32:00,
2013-09-20 18:47:00,70.2,67.0,29.73,SW,219,0.0,2.0,90,0.00,,,0.01,weatherlink.com 1.10,2013-09-20 22:47:00,
2013-09-20 19:02:00,69.8,67.0,29.73,SW,219,0.0,1.0,91,0.01,,,0.02,weatherlink.com 1.10,2013-09-20 23:02:00,
2013-09-20 19:17:00,69.4,67.0,29.73,SW,219,0.0,1.0,92,0.01,,,0.02,weatherlink.com 1.10,2013-09-20 23:17:00,
2013-09-20 19:32:00,68.9,67.0,29.73,SSW,213,0.0,3.0,93,0.02,,,0.03,weatherlink.com 1.10,2013-09-20 23:32:00,
2013-09-20 19:47:00,68.6,67.0,29.73,SSW,213,0.0,1.0,94,0.02,,,0.03,weatherlink.com 1.10,2013-09-20 23:47:00,
2013-09-20 20:02:00,68.3,67.0,29.73,WSW,241,0.0,2.0,95,0.03,,,0.05,weatherlink.com 1.10,2013-09-21 00:02:00,
2013-09-20 20:17:00,68.0,67.0,29.74,WSW,237,0.0,4.0,95,0.04,,,0.06,weatherlink.com 1.10,2013-09-21 00:17:00,
2013-09-20 20:32:00,67.9,67.0,29.73,WSW,241,0.0,2.0,96,0.04,,,0.07,weatherlink.com 1.10,2013-09-21 00:32:00,
2013-09-20 20:47:00,67.7,67.0,29.74,WSW,240,0.0,1.0,96,0.04,,,0.07,weatherlink.com 1.10,2013-09-21 00:47:00,
2013-09-20 21:02:00,67.5,66.0,29.74,South,174,1.0,3.0,96,0.05,,,0.10,weatherlink.com 1.10,2013-09-21 01:02:00,
2013-09-20 21:17:00,67.1,66.0,29.74,South,171,0.0,3.0,96,0.07,,,0.13,weatherlink.com 1.10,2013-09-21 01:17:00,
2013-09-20 21:32:00,66.9,66.0,29.74,South,171,0.0,2.0,97,0.06,,,0.13,weatherlink.com 1.10,2013-09-21 01:32:00,
2013-09-20 21:47:00,66.8,66.0,29.74,WNW,294,0.0,2.0,97,0.06,,,0.13,weatherlink.com 1.10,2013-09-21 01:47:00,
2013-09-20 22:17:00,66.6,66.0,29.73,SW,236,3.0,3.0,97,0.00,,,0.13,weatherlink.com 1.10,2013-09-21 02:17:00,
2013-09-20 22:32:00,66.6,66.0,29.73,WSW,237,0.0,2.0,98,0.00,,,0.13,weatherlink.com 1.10,2013-09-21 02:32:00,
2013-09-20 22:47:00,66.8,66.0,29.74,West,271,0.0,3.0,98,0.00,,,0.13,weatherlink.com 1.10,2013-09-21 02:47:00,
2013-09-20 23:02:00,66.8,66.0,29.74,West,275,1.0,5.0,98,0.00,,,0.13,weatherlink.com 1.10,2013-09-21 03:02:00,
2013-09-20 23:17:00,66.7,66.0,29.74,WNW,294,1.0,5.0,98,0.00,,,0.13,weatherlink.com 1.10,2013-09-21 03:17:00,
2013-09-20 23:32:00,66.1,65.0,29.74,NW,304,1.0,8.0,97,0.00,,,0.13,weatherlink.com 1.10,2013-09-21 03:32:00,
2013-09-20 23:47:00,65.4,64.0,29.74,WNW,298,0.0,7.0,96,0.00,,,0.13,weatherlink.com 1.10,2013-09-21 03:47:00,